Location: eljas
(40.1958°N, 6.8661°W)
Time: 12:15:08
(UTC+02:00)

Daily predictions for brighter satellites

Satellite Brightness Start Highest point End
(mag) Time Altitude Azimuth Time Altitude Azimuth Time Altitude Azimuth
Cosmos 2346 Rocket 4.5 20:34:30 10° N 20:40:36 85° E 20:46:38 10° S
Okean 3 Rocket 3.6 20:39:45 10° N 20:44:19 82° E 20:48:52 10° S
Timation 1 Rocket 4.4 20:39:49 10° NNW 20:45:45 63° ENE 20:51:39 10° SE
Aureole 2 Rocket 3.1 20:42:46 10° SSW 20:47:10 87° WNW 20:51:28 10° NNE
Cosmos 1072 Rocket 4.5 20:41:55 10° S 20:47:53 60° E 20:53:53 10° NNE
Cosmos 1452 Rocket 3.9 20:44:47 10° N 20:49:48 43° ENE 20:54:46 10° SE
Resurs 01 Rocket 2.4 20:45:52 10° SE 20:49:48 32° ENE 20:53:47 10° N
Cosmos 2237 Rocket 3.7 20:44:34 10° SW 20:49:53 40° WNW 20:55:14 10° N
SJ-6B 2.9 20:46:26 10° SSE 20:50:20 57° ENE 20:54:20 10° N
ATLAS 5 CENTAUR R/B 1.9 20:45:43 10° SSW 20:50:21 57° ESE 20:55:22 10° NE
Helios 1A 3.9 20:47:10 10° SE 20:50:46 28° ENE 20:54:23 10° N
SAR-Lupe-1 4.0 20:49:33 10° SSE 20:53:04 65° ENE 20:56:37 10° N
CENTAUR R/B 3.6 20:51:11 10° SSE 20:55:16 19° ESE 20:59:36 10° ENE
Meteor 1-29 4.0 20:56:16 10° NE 20:59:13 25° E 21:02:10 10° SSE
Cosmos 1674 4.4 20:57:39 10° NNE 21:00:06 16° ENE 21:01:27 14° E
NOSS 3-2 (C) 3.5 20:55:19 10° SSW 21:01:21 83° ESE 21:07:58 10° NE
Cosmos 1758 3.7 20:58:37 10° SSE 21:02:29 43° E 21:06:23 10° NNE
FREGAT/IRIS 2.6 20:59:45 10° SSE 21:02:48 60° ENE 21:05:51 10° N
CZ-4B DEB 4.5 21:01:52 15° E 21:02:58 17° ENE 21:05:09 10° NNE
Atlas Centaur 2 4.4 20:57:08 10° WSW 21:04:20 31° SSW 21:11:16 10° SE
ASTRO E2 4.4 21:01:34 10° WSW 21:04:47 23° S 21:07:51 11° SE
Cosmos 1484 Rocket 4.1 21:02:15 10° S 21:05:55 44° W 21:09:41 10° NNW
SL-16 R/B 2.8 21:04:52 10° SW 21:10:29 62° WNW 21:16:09 10° NNE
COSMO-SKYMED 1 4.1 21:06:56 10° N 21:11:01 40° WNW 21:15:05 10° SW
ASTEX 1 4.2 21:09:07 10° NNE 21:13:21 28° E 21:17:33 10° SSE
METEOR-M 4.1 21:11:17 10° SSE 21:16:36 75° ENE 21:21:58 10° N
Abrixas 2.7 21:18:12 10° SW 21:21:06 47° SE 21:22:10 30° E
Cosmos 2034 Rocket 3.9 21:16:27 10° S 21:22:41 78° E 21:29:01 10° N
Cosmos 1464 Rocket 4.2 21:17:46 10° S 21:24:01 77° W 21:30:14 10° N
Cosmos 1346 3.3 21:22:35 10° N 21:25:27 43° ENE 21:26:24 31° SE
CZ-4C R/B 4.4 21:21:18 10° W 21:25:43 24° NW 21:30:34 10° NNE
Spot 2 Rocket 3.4 21:21:54 10° SSE 21:26:56 83° ENE 21:32:00 10° NNW
Helios 1B rocket 2.3 21:24:53 10° NNE 21:29:01 80° ESE 21:33:08 10° S
Cosmos 1269 Rocket 4.0 21:24:35 10° S 21:29:44 57° ESE 21:34:55 10° NNE
Cosmos 1048 Rocket 4.2 21:24:40 10° S 21:29:45 48° ESE 21:34:47 10° NNE
FENGYUN 3A 3.8 21:24:40 10° SE 21:29:49 49° ENE 21:35:00 10° N
Cosmos 1766 Rocket 3.7 21:26:12 10° NNW 21:30:35 74° W 21:34:53 10° S
Spot 1 4.4 21:27:11 10° S 21:31:56 75° WSW 21:36:26 10° NNW
Gbstr 26 Del rocket 3.9 21:29:27 10° SSW 21:33:26 34° SE 21:35:01 27° E
OAO 3 Rocket 3.8 21:29:51 10° WSW 21:34:23 45° S 21:36:36 26° SE
Cosmos 1544 3.0 21:31:55 10° S 21:35:38 74° E 21:39:22 10° NNE
USA 215 3.2 21:29:49 10° NE 21:36:23 82° SE 21:42:55 10° SW
Cosmos 1076 Rocket 4.5 21:33:08 10° NNW 21:37:19 49° W 21:41:31 10° SSW
CZ-2D R/B 3.6 21:38:34 35° ESE 21:39:37 44° ENE 21:43:21 10° N
Cosmos-2242 3.3 21:39:29 10° SSW 21:43:50 69° W 21:48:13 10° N
ALOS 2.1 21:46:37 15° SSE 21:50:27 79° ENE 21:55:09 10° N
Cosmos 2369 Rocket 2.6 21:47:31 10° N 21:52:55 44° ENE 21:54:17 37° E
Cosmos 1943 3.3 21:47:36 10° S 21:53:00 48° ESE 21:58:24 10° NE
Cosmos 1943 Rocket 3.6 21:49:18 10° N 21:53:30 21° NE 21:53:31 21° NE
Cosmos 2151 4.1 21:50:06 10° NNE 21:52:48 28° NE 21:52:48 28° NE
H-2A R/B 2.7 21:53:21 52° SE 21:54:07 67° ENE 21:57:59 10° N
Cosmos 1953 3.7 21:52:10 10° SSW 21:55:54 39° WNW 21:59:41 10° N
Cosmos 158 Rocket 3.9 21:51:36 10° S 21:56:16 48° ESE 22:00:57 10° NNE
Cosmos 1603 4.1 21:52:14 10° SSW 21:57:56 67° WNW 22:03:42 10° NNE
Cosmos 1842 Rocket 3.4 21:58:19 10° S 22:02:39 89° E 22:07:01 10° N
Cosmos 1500 Rocket 3.4 21:59:24 10° N 22:03:52 87° E 22:05:29 39° S
ISS -2.3 22:03:42 10° SW 22:05:57 41° SW 22:05:57 41° SW
SeaSat 1 2.7 22:09:15 10° NNE 22:15:12 49° SSE 22:19:01 10° SSW
ERS-1 Rocket 3.8 22:15:19 36° NE 22:15:19 36° NE 22:18:56 10° N
GPS 2-04 Rocket1 4.3 22:12:47 10° WSW 22:14:30 23° SW 22:14:30 23° SW
SL-8 R/B 3.8 22:12:42 10° WSW 22:17:28 73° NNW 22:18:15 59° NNE
Cosmos 1470 3.3 22:15:12 10° SSW 22:19:01 55° W 22:22:51 10° N
Cosmos 1110 Rocket 4.5 22:17:07 10° N 22:21:32 45° NE 22:21:32 45° NE
Cosmos 1733 4.0 22:24:02 49° NNW 22:24:02 49° NNW 22:27:09 10° N
Resurs 01 Rocket 4.0 22:22:48 10° SSW 22:26:18 22° W 22:29:49 10° NW
Meteor 1-16 Rocket 4.3 22:31:21 54° NNE 22:31:21 54° NNE 22:35:29 10° NNE
BREEZE-M DEB (TANK) 3.4 22:20:13 10° WNW 22:30:36 56° N 22:31:11 52° NNE
Cosmos 2279 Rocket 4.2 22:32:52 52° NE 22:32:52 52° NE 22:37:50 10° NNE
Meteor 1-11 4.2 22:27:37 10° N 22:33:09 70° ENE 22:33:09 70° ENE
ATLAS 5 CENTAUR R/B 4.2 22:31:37 10° W 22:35:27 22° NW 22:39:32 10° NNE
Cosmos 1674 4.4 22:32:20 10° NNW 22:35:50 32° W 22:36:27 30° WSW
Cosmos 1655 Rocket 3.8 22:34:46 10° N 22:41:02 79° E 22:41:04 79° E
CENTAUR R/B 2.7 22:38:59 10° SW 22:45:00 70° NW 22:51:50 10° NNE
Cosmos 2026 Rocket 4.0 22:46:57 10° N 22:53:02 76° W 22:53:26 73° SW
GP-B 4.4 22:49:28 10° NNW 22:53:21 39° WNW 22:53:21 39° WNW
Cosmos 2369 Rocket 4.0 23:32:05 10° NW 23:36:07 25° W 23:36:07 25° W
Cosmos 1943 Rocket 3.8 23:32:08 10° NNW 23:35:03 31° NW 23:35:03 31° NW
